COSMOS 1275 DEB

Satellite information

Favourite Embed

Satellite Type and Status

DEBRISIN ORBIT

Key statistics

Satellite COSMOS 1275 DEB at a glance.

Uptime

16165

Days in orbit

Revolutions

≈ 13.9

Per day

Orbit

LEO

Low Earth Orbit

Inclination

82.8

Latest

Satellite identification and parameters

Extended collection of information and parameters for COSMOS 1275 DEB.

Object identification

Identified? True

Debris? True

Object name: COSMOS 1275 DEB

International designator: 1981-053RG

Object number (NORAD): 42144

Object ID (CCSDS): 42144

Country: COMMONWEALTH OF INDEPENDENT STATES (CIS)

Current information (Y/N): Y

RCS size: SMALL

Orbital parameters

Period: 103.707 minutes

Inclination: 82.8092 deg

SMA: 7311.954 km

Apoapsis: 973.109 km

Periapsis: 894.528 km

RAAN: 165.5416 deg

Eccentricy: 0.00537343

Argument of periapsis: 169.6176 deg

Mean anomaly: 204.3131 deg

Mean motion: 13.88521558 rev/day

Mean motion (dot): 0.00001751 rev/day2

B* drag term: 0.0014289341 1/REarth

Two-line elements (TLE)

Creation date: Sept. 4, 2025, 10:13 a.m.

Reference frame: TEME

Reference center: EARTH

Epoch: Sept. 4, 2025, 12:32 a.m. UTC

TLE line 0: 0 COSMOS 1275 DEB

TLE line 1: 1 42144U 81053RG 25247.02267288 .00001751 00000-0 14289-2 0 9997

TLE line 2: 2 42144 82.8092 165.5416 0053734 169.6176 204.3131 13.88521558595876

Live tracking on map

Real-time ground track for satellite COSMOS 1275 DEB.

In-orbit conjunctions

A list of the most updated potential collisions computed for object COSMOS 1275 DEB.

Target Orbit TCA Probability of collision Miss distance Type
SL-8 R/B LEO 2025-06-25 05:35:51 0.0002400614 937.0 (m) ROCKET BODY
FENGYUN 1C DEB SSO 2025-03-24 20:09:15 0.0001112132 180.0 (m) DEBRIS
METEOR 2-11 DEB LEO 2024-11-14 01:29:18 0.0001574076 649.0 (m) DEBRIS

Associated space launch

Navigation satellite providing location information for the Tsiklon-B navigation system

COSMOS 1275 DEB was lifted into orbit during the mission ‘Kosmos-3M | Parus 27’, on board a Kosmos-3M space rocket.

The launch took place on June 4, 1981, 3:41 p.m. from 132/2.

For more information about the launch, click the button.

Launch to space Kosmos-3M | Parus 27
Kosmos-3M | Parus 27

Agency: N/A

Status: Launch Successful

Launch date: June 4, 1981, 3:41 p.m. UTC

Rocket: Kosmos-3M

Launch pad: 132/2

Location: Plesetsk Cosmodrome, Russian Federation

...

Latest news about this satellite

There are no fresh news available about this satellite. Check back as we update our databases every day.


Newsletter sign-up

Weekly statistics, charts and insights to help you stay on top of the space industry.